Showing default

FLOCK 4BE 29, 60509

Orbit data source: Space-Track

FLOCK 4BE 29, 60509 is a payload satellite owned by Planet (US) in SSO that was launched on Fri, 16 Aug 2024 UTC via an FALCON 9 launch vehicle from the Air Force Western Test Range (AFWTR). Payload-class satellites include a variety of spacecraft equipped with specific instruments for various scientific and technological missions. These include communications satellites like Starlink; space stations such as the ISS; scientific satellites like the Hubble; Earth observation satellites from companies like Planet Labs, Umbra, and HawkEye 360; GPS; miniature CubeSats for education and research; and military/defense satellites.

Loading next visibility...
Identifier
60509, 2024-149AT
Orbit
SSO
Country
Flag of USUS
Related business
Manufacturer
Planet
Mission
Operational Commercial Imaging
Bus & Motor
CUBESAT 3U, Unknown motor
Mass
5.7 kg wet, 5.7 kg dry
Launch date (UTC)
2024-08-16 (2 years ago)
Launch vehicle
FALCON 9
Launch site
Air Force Western Test Range (AFWTR)
Object type
Payload
Rocket body
Debris
Shape & HBR
Box + 2 Pan, 1.0 m
Radar Cross Section
0.072 m², Medium (>0.1 m² and < 1m²)

Expand to show TLE details & history
Last TLE update: 2 days ago

TLE from 2 days ago
0 FLOCK 4BE 29
1 60509U 24149AT  26235.23751447  .00022932  00000-0  44038-3 0  9991
2 60509  97.3778 322.2868 0003789  91.3434 268.8251 15.47963194112774
Epoch: 2026-08-23T05:42Z
TLE epoch observation values (Epoch: 2026-08-23T05:42:01.250Z)
Latitude
0.00005°
Longitude
-94.75486°
Altitude
425.868 km
Speed
7.656 km/s
True Right ascension
21h 29m 08s
True Declination
0° 00' 00"
Sunlit
Object was in full shadow at epoch
Visualization orbit readout
Latitude
Unknown
Longitude
Unknown
Altitude
Unknown
Speed
Unknown
Apparent Right ascension
Unknown
Apparent Declination
Unknown
Sunlit
N/A
Visualization observer readout
Local Sidereal Time
02:04:55
Azimuth
Unknown
Elevation
Unknown
Doppler factor
Unknown
Orbital elements
Apogee altitude
422.188 km
Perigee altitude
417.037 km
Semi-major axis
6,797.75 km
Eccentricity
0.00038
Inclination
97.3778°
RAAN
322.2868°
Arg. of periapsis
91.3434°
True anomaly
268.78169°
Mean anomaly
268.8251°
Eccentric anomaly
268.8034°
Mean motion
3.87254 °/min
Orbital period
92.96 mins
BSTAR
0.00044038
Loading maneuver chart data...
Computing Atmospheric mass density...
Loading historical data...
Loading historical data...
Loading historical data...
Loading historical data...
Loading historical data...
Loading historical data...
Loading historical data...

Documentation

Showing up to 5 results
|